FW7315 Weather Reports


Display with metric or nautical units.
time (UTC)temp
F
wind
direction
speed
MPH
gust
MPH
rain 1hr
in
rain 24hr
in
rain mn
in
humidity
%
barometer
mb
20260507054553 57 351 0.0 6.0 0.00 0.00 0.00 74 1009.9
20260507053048 57 166 3.0 6.0 0.00 0.00 0.00 73 1009.9
20260507051648 57 198 3.0 5.0 0.00 0.00 0.00 73 1009.9
20260507050046 57 287 0.0 3.0 0.00 0.02 0.00 75 1009.8
20260507044545 57 277 0.0 2.0 0.00 0.02 0.00 74 1009.7
20260507043042 57 241 0.0 2.0 0.00 0.02 0.00 73 1009.4
20260507041541 57 199 0.0 3.0 0.00 0.02 0.00 74 1009.3
20260507040040 58 146 1.0 2.0 0.00 0.02 0.00 74 1009.3
20260507034540 57 150 0.0 4.0 0.00 0.02 0.00 75 1009.0
20260507033037 57 154 0.0 2.0 0.00 0.02 0.00 77 1009.0
20260507031537 57 167 0.0 1.0 0.00 0.02 0.00 78 1009.0
20260507030036 57 167 0.0 1.0 0.00 0.02 0.00 77 1008.9
20260507024536 58 161 1.0 2.0 0.00 0.02 0.00 77 1008.9
20260507023035 58 318 0.0 2.0 0.00 0.02 0.00 77 1008.8
20260507021533 59 210 0.0 2.0 0.00 0.02 0.00 76 1008.9
20260507020041 59 318 0.0 2.0 0.00 0.02 0.00 76 1008.9
20260507014533 58 304 0.0 5.0 0.00 0.02 0.00 77 1008.9
20260507013045 58 279 0.0 2.0 0.00 0.02 0.00 80 1008.8
20260507011531 58 202 2.0 5.0 0.00 0.02 0.00 79 1008.8
20260507010036 58 200 2.0 6.0 0.00 0.02 0.00 80 1008.8
20260507004527 58 222 2.0 4.0 0.00 0.02 0.00 80 1008.9
20260507003027 59 279 0.0 2.0 0.00 0.02 0.00 78 1008.9
20260507001530 59 189 0.0 1.0 0.00 0.02 0.00 78 1008.9
20260507000027 58 294 1.0 3.0 0.00 0.02 0.00 79 1009.0
20260506234531 58 288 1.0 3.0 0.00 0.02 0.00 82 1009.0
20260506233027 59 296 0.0 2.0 0.00 0.02 0.00 81 1009.0
20260506231524 60 101 0.0 1.0 0.00 0.02 0.00 77 1008.9
20260506230021 61 76 2.0 5.0 0.00 0.02 0.00 74 1008.8
20260506224515 61 110 0.0 4.0 0.00 0.02 0.00 72 1008.8
20260506223014 62 236 1.0 6.0 0.00 0.02 0.00 72 1009.0
20260506221512 61 136 4.0 8.0 0.00 0.02 0.00 72 1008.8
20260506220021 61 107 4.0 9.0 0.00 0.05 0.02 72 1008.8
20260506214510 61 116 2.0 5.0 0.00 0.05 0.02 73 1009.0
20260506213008 61 105 2.0 8.0 0.00 0.05 0.02 74 1009.0
20260506211513 61 87 1.0 8.0 0.00 0.05 0.02 75 1009.0
20260506210012 59 138 3.0 10.0 0.00 0.10 0.02 79 1008.8
20260506204506 59 96 1.0 3.0 0.00 0.10 0.02 82 1009.0
20260506203006 59 318 1.0 2.0 0.00 0.10 0.02 82 1009.0
20260506201507 59 242 1.0 3.0 0.00 0.10 0.02 81 1008.8
20260506200010 60 243 0.0 3.0 0.00 0.20 0.02 80 1008.8
20260506194504 60 267 0.0 3.0 0.00 0.20 0.02 80 1008.6
20260506193004 60 262 1.0 4.0 0.00 0.20 0.02 79 1008.6
20260506191503 60 268 1.0 4.0 0.00 0.20 0.02 80 1008.3
20260506190004 60 315 0.0 2.0 0.00 0.21 0.02 82 1008.1
20260506184504 61 285 0.0 3.0 0.00 0.21 0.02 81 1007.9
20260506183005 61 296 0.0 2.0 0.00 0.21 0.02 81 1007.7
20260506181503 61 303 1.0 2.0 0.00 0.21 0.02 80 1007.6
20260506180000 62 288 1.0 3.0 0.00 0.33 0.02 80 1007.5
20260506174601 64 300 2.0 6.0 0.00 0.33 0.02 76 1007.3
20260506173112 65 113 5.0 9.0 0.00 0.33 0.02 70 1007.1
20260506171610 63 93 0.0 3.0 0.00 0.33 0.02 74 1007.0
20260506170108 63 127 0.0 3.0 0.00 0.33 0.02 78 1006.9
20260506164618 64 131 1.0 2.0 0.00 0.33 0.02 78 1006.8
20260506163105 64 116 0.0 5.0 0.00 0.33 0.02 77 1007.0
20260506161557 67 101 2.0 4.0 0.00 0.33 0.02 70 1006.9
20260506160107 67 92 2.0 7.0 0.00 0.33 0.02 64 1006.8
20260506154556 68 343 2.0 5.0 0.00 0.33 0.02 63 1006.9
20260506153055 68 355 1.0 8.0 0.00 0.33 0.02 66 1006.8
20260506151553 68 205 5.0 12.0 0.00 0.33 0.02 67 1006.8
20260506150053 68 161 7.0 12.0 0.00 0.33 0.02 67 1006.6
20260506144550 68 142 3.0 12.0 0.00 0.33 0.02 68 1006.7
20260506143050 69 98 3.0 9.0 0.00 0.33 0.02 66 1006.7
20260506141606 67 63 4.0 13.0 0.00 0.33 0.02 67 1006.7
20260506140048 68 114 7.0 13.0 0.00 0.33 0.02 66 1006.7
20260506134544 69 107 5.0 14.0 0.00 0.33 0.02 64 1007.1
20260506133042 68 98 3.0 14.0 0.00 0.33 0.02 67 1007.2
20260506131543 69 117 8.0 17.0 0.00 0.33 0.02 65 1007.5
20260506130040 68 140 8.0 15.0 0.00 0.33 0.02 67 1007.6
20260506124538 65 154 8.0 14.0 0.00 0.33 0.02 69 1007.5
20260506123040 65 90 8.0 15.0 0.00 0.33 0.02 70 1007.6
20260506121532 65 78 6.0 15.0 0.00 0.33 0.02 71 1007.6
20260506120046 65 100 7.0 15.0 0.00 0.33 0.02 71 1007.7
20260506114527 64 90 2.0 8.0 0.00 0.33 0.02 75 1007.8
20260506113027 63 109 5.0 11.0 0.00 0.33 0.02 76 1007.9
20260506111525 63 144 8.0 16.0 0.00 0.33 0.02 75 1008.0
20260506110026 63 101 7.0 12.0 0.00 0.33 0.02 77 1008.2
20260506104524 63 83 3.0 8.0 0.00 0.33 0.02 77 1008.6
20260506103029 63 135 2.0 12.0 0.00 0.33 0.02 77 1008.5
20260506101523 63 194 5.0 14.0 0.00 0.33 0.02 75 1008.5
20260506100023 64 158 3.0 17.0 0.00 0.33 0.02 77 1008.3
20260506094531 63 106 7.0 16.0 0.00 0.33 0.02 77 1008.3
20260506093039 64 141 8.0 16.0 0.00 0.33 0.02 76 1008.2
20260506091518 63 71 2.0 12.0 0.00 0.33 0.02 79 1008.2
20260506090018 62 163 5.0 11.0 0.00 0.33 0.02 79 1008.2
20260506084517 63 90 5.0 11.0 0.00 0.33 0.02 78 1008.0
20260506083015 63 90 3.0 10.0 0.00 0.33 0.02 81 1007.9
20260506081510 61 91 6.0 15.0 0.00 0.33 0.02 81 1007.8
20260506073105 59 94 6.0 10.0 0.00 0.33 0.02 89 1007.7
20260506071602 58 93 3.0 7.0 0.00 0.33 0.02 94 1007.8
20260506070117 57 61 4.0 9.0 0.00 0.42 0.02 94 1007.8
20260506061554 56 69 3.0 7.0 0.00 0.42 0.02 94 1008.5